Temp
71 72 72 72 72 72 74 75 74 75 75 75 74 75 74 74 74 74 74 73 72 70 70 70 71 71 74 71 72 74 74 74 74 74 74 74 73 73 73 73 73 72 72 72 71 72 71 71 71 71 72 72 71 65 66 68 68 68 68 67 68 67
71 71 72 72 72 72 73 74 72 72 73 74 74 75 74 73 75 71 74 71 69 71 69 68 69 74 71 72 72 74 74 74 73 74 73 73 73 73 73 73 73 72 72 71 72 65 65 69 71 71 72 72 65 64 66 68 68 67 68 67 67 69
71 71 71 71 72 72 71 71 71 71 73 74 75 73 71 73 70 70 70 69 70 69 68 68 69 72 71 72 72 74 74 74 73 73 73 73 73 73 73 73 72 72 71 71 67 62 62 62 62 70 70 65 63 65 66 67 67 67 67 68 67 72
72 71 71 70 71 70 70 70 70 71 71 71 71 71 70 70 70 69 69 68 67 69 68 66 75 76 75 71 71 73 74 73 73 73 73 72 73 72 73 73 72 72 71 69 64 63 63 62 63 62 62 64 63 65 66 66 66 67 67 70 68 73
72 72 71 70 70 69 69 69 70 70 70 69 69 69 69 69 69 68 67 67 67 67 66 66 66 67 68 68 67 68 70 69 68 67 72 66 67 68 69 66 67 68 64 64 64 64 63 64 65 64 64 64 64 65 66 67 67 67 67 69 69 72
72 72 71 70 70 71 71 69 69 69 69 68 68 68 68 68 68 68 67 67 67 66 66 66 65 65 66 67 67 68 68 68 67 67 68 67 66 66 65 66 65 65 64 64 65 64 64 65 66 64 65 65 65 65 66 67 67 67 67 66 69 73
71 71 70 71 70 70 69 68 68 68 68 67 67 67 67 67 67 67 67 67 65 65 65 64 65 65 66 67 67 67 67 67 67 67 68 67 67 66 66 66 65 65 64 64 65 65 64 65 64 66 65 66 65 65 67 67 67 67 66 66 70 73
71 70 69 71 70 69 69 68 69 71 68 69 67 66 66 67 68 67 67 67 67 65 65 64 65 65 66 66 66 66 66 66 66 66 68 67 66 66 66 65 65 64 65 65 65 66 65 66 65 65 66 65 65 65 67 67 67 67 67 66 68 71
71 71 69 70 69 68 68 68 69 67 66 71 65 65 66 67 67 67 66 66 67 64 64 65 64 65 65 65 65 65 65 65 65 65 67 66 66 66 66 66 65 65 65 65 64 65 66 67 64 64 65 66 65 66 67 66 66 67 66 66 67 69
71 71 69 69 68 67 67 68 67 66 66 70 65 66 66 66 65 65 65 66 66 65 64 65 65 65 65 64 64 64 64 64 64 64 65 66 65 65 65 65 65 66 66 65 65 66 66 66 65 65 65 66 66 68 67 66 66 66 66 66 66 68
72 71 70 69 67 67 67 67 67 66 67 67 66 66 65 66 65 65 65 67 67 66 66 65 65 65 65 65 64 63 63 63 64 64 65 66 66 66 65 65 66 66 66 66 66 66 66 66 65 67 66 67 66 66 67 67 66 66 66 65 66 67
71 71 69 69 69 67 67 67 67 66 66 66 67 66 66 65 66 64 65 65 66 66 66 64 64 64 64 64 63 63 63 64 64 64 65 66 66 67 66 66 67 67 66 66 65 65 65 65 65 64 65 65 65 67 66 66 67 67 67 65 66 66
71 70 69 68 68 67 67 68 66 66 66 67 66 66 65 65 65 64 65 65 64 65 65 64 63 63 64 63 63 63 63 64 65 65 65 65 66 65 65 65 65 67 64 64 64 64 66 64 64 65 65 66 66 66 66 66 66 66 66 66 65 66
70 69 68 68 67 67 67 67 66 65 67 65 65 64 65 65 65 63 64 64 64 64 64 64 63 62 63 63 63 63 64 64 64 64 64 65 65 63 64 64 64 64 67 64 64 63 64 64 63 64 64 66 65 65 64 66 65 66 66 66 65 66
69 68 69 67 68 67 66 67 66 65 64 64 64 64 64 64 64 65 65 64 64 65 64 64 64 63 63 63 63 63 63 64 65 65 65 64 65 64 63 63 62 64 62 63 64 64 64 63 63 64 63 64 65 66 65 65 65 65 66 66 65 65
68 67 66 66 66 67 67 67 66 66 64 63 64 64 64 64 65 64 64 64 64 65 65 64 63 63 63 63 64 64 64 65 66 65 65 64 64 64 63 63 63 64 62 62 64 62 62 62 62 62 62 63 63 64 64 65 65 66 66 65 67 65
67 66 66 66 65 66 67 66 66 65 63 62 62 62 63 64 64 64 63 63 63 64 64 63 64 64 63 64 64 65 64 65 66 65 64 63 63 63 64 65 62 63 64 62 63 62 62 62 62 62 62 63 63 63 63 64 65 64 66 65 65 66
66 67 66 66 66 65 66 66 64 64 65 63 62 62 63 64 64 63 63 63 63 64 64 63 63 63 63 65 65 65 65 65 65 64 63 62 61 62 63 64 62 62 63 64 62 62 61 62 64 63 62 62 61 62 62 63 63 65 64 65 64 65
67 65 65 65 65 65 64 63 62 64 63 63 63 63 64 63 62 63 62 62 63 63 64 63 63 64 63 65 64 64 63 63 64 64 63 62 62 63 63 62 63 62 62 62 63 63 62 63 63 63 63 61 61 61 61 61 62 62 63 64 65 66
65 64 64 64 65 63 63 63 62 61 63 62 62 63 63 63 63 62 64 64 63 63 64 63 64 63 63 64 63 62 63 63 63 63 62 61 61 61 62 62 61 62 62 62 62 62 62 62 61 61 60 60 60 61 61 61 61 61 61 62 63 64
63 63 65 64 63 62 61 60 61 62 61 60 62 61 61 61 62 63 64 65 64 64 64 64 64 63 62 66 63 62 62 62 63 63 62 61 61 61 61 61 60 60 60 60 60 61 61 62 60 58 59 58 59 61 63 61 60 60 61 61 61 61
62 63 63 63 64 62 60 63 62 61 60 60 61 60 60 60 61 62 61 62 63 63 63 64 63 62 63 63 62 62 62 61 62 62 62 61 61 62 62 61 60 59 59 59 59 61 60 59 56 55 55 56 56 58 61 60 60 59 60 60 60 60
63 64 63 63 62 61 59 62 63 60 63 60 61 60 61 61 62 62 60 60 60 60 61 63 62 63 62 63 62 62 61 61 61 62 61 61 61 60 60 61 60 60 59 59 60 61 59 58 56 56 55 54 52 55 56 56 58 58 61 60 60 60
64 62 62 62 62 59 62 62 63 63 60 62 61 61 60 59 60 62 61 60 60 58 60 60 62 64 63 62 61 61 61 60 60 61 61 60 59 61 61 60 60 59 60 57 57 58 59 58 57 56 56 53 53 52 51 54 54 56 60 60 60 60
63 62 61 62 62 63 64 62 61 61 61 61 60 59 59 58 58 61 60 60 60 60 61 61 60 60 61 60 60 60 60 60 60 60 60 60 59 60 60 60 60 59 58 57 57 59 58 58 59 59 55 53 52 50 50 53 53 54 57 58 59 60
61 61 62 61 64 65 64 63 61 60 58 57 56 56 56 58 57 58 59 60 60 60 61 60 60 60 61 60 59 60 60 60 59 61 61 60 60 60 60 60 59 59 59 58 58 57 56 58 58 58 58 56 55 51 52 55 52 53 54 56 57 59
62 61 62 62 65 65 63 64 63 62 61 59 58 57 57 56 58 58 59 58 59 59 60 60 59 58 59 59 58 57 58 58 59 58 60 59 59 59 60 61 60 59 59 59 59 55 56 56 57 57 57 57 59 58 56 55 52 51 48 51 54 56
62 63 63 63 64 66 64 62 61 60 61 59 59 58 57 57 57 58 58 58 59 58 59 59 59 59 59 60 58 58 58 59 59 60 60 59 58 58 60 60 58 58 59 58 57 57 55 55 55 55 57 56 56 57 57 57 54 54 49 49 51 53
63 63 62 63 64 64 65 63 62 61 59 58 59 59 58 59 58 58 57 56 58 57 57 57 58 58 58 59 59 57 57 59 59 59 60 59 58 59 58 58 57 57 56 56 57 56 56 54 54 54 55 55 55 55 55 56 56 54 52 49 49 51
62 62 63 63 63 63 64 63 61 61 60 58 59 58 57 57 56 56 57 55 55 56 55 56 56 56 57 57 57 57 57 57 57 59 59 58 57 57 57 57 56 56 56 55 55 56 55 53 53 53 54 55 53 54 54 53 52 53 53 54 52 52
62 62 62 62 63 62 64 64 62 61 61 59 59 58 57 55 55 55 56 55 55 55 55 55 56 56 56 56 56 57 56 56 57 59 58 58 57 57 56 55 55 56 56 56 54 54 54 53 54 54 54 54 53 54 54 52 53 52 51 51 51 51
60 61 61 61 62 63 62 62 62 62 62 62 60 60 59 57 56 56 55 55 55 54 54 55 54 56 55 55 56 55 55 55 56 55 55 56 56 56 56 56 55 55 54 53 53 54 53 53 53 53 52 52 52 54 54 53 53 52 51 52 51 49
59 60 61 62 62 63 62 61 62 62 62 62 61 61 60 58 57 57 56 55 54 55 54 56 54 56 54 54 55 56 55 56 55 55 55 56 55 54 54 54 54 53 53 52 51 52 51 49 51 52 51 50 52 53 52 52 52 52 51 51 49 48
58 60 61 61 62 61 61 61 62 62 62 62 61 61 60 59 58 58 57 56 56 56 55 56 55 55 55 55 55 56 55 53 54 54 55 54 54 54 54 55 54 53 53 51 52 51 50 50 50 49 49 51 51 51 50 52 51 52 51 49 48 48
58 59 58 59 60 59 59 61 62 62 62 62 62 61 60 60 59 58 57 57 56 55 56 55 56 57 54 55 54 54 54 54 54 54 54 55 57 54 54 55 54 53 53 52 53 53 51 52 54 52 50 50 53 51 51 51 53 52 52 52 51 50
59 59 59 61 61 60 60 61 61 62 61 61 62 61 60 60 59 59 58 58 57 56 57 56 57 55 55 56 55 55 54 53 53 54 53 54 54 55 54 54 53 53 53 56 54 52 50 52 52 50 49 49 52 50 50 51 52 50 51 51 51 49
60 60 60 61 60 61 60 60 61 63 63 62 61 61 61 60 60 60 59 58 58 58 58 58 58 57 56 55 55 55 55 54 54 53 53 54 54 53 54 55 54 52 53 52 54 52 51 52 50 50 49 49 50 50 50 50 51 50 50 49 50 49
MSLP
1014.79 1014.87 1014.95 1015.03 1015.11 1015.15 1015.15 1015.19 1015.35 1015.43 1015.55 1015.71 1015.79 1015.87 1016.03 1016.07 1016.19 1016.31 1016.39 1016.55 1016.67 1016.79 1016.91 1016.95 1016.99 1017.03 1017.07 1017.23 1017.31 1017.35 1017.43 1017.51 1017.63 1017.71 1017.83 1017.91 1017.95 1017.99 1017.99 1017.99 1017.99 1017.99 1017.99 1017.95 1017.91 1017.87 1017.99 1018.15 1018.27 1018.31 1018.31 1018.43 1018.63 1018.67 1018.63 1018.67 1018.75 1018.91 1019.11 1019.15 1019.19 1019.19
1014.95 1015.03 1015.07 1015.19 1015.23 1015.27 1015.31 1015.39 1015.51 1015.63 1015.71 1015.83 1015.91 1015.95 1016.07 1016.19 1016.27 1016.43 1016.51 1016.63 1016.79 1016.87 1016.95 1017.03 1017.03 1017.03 1017.19 1017.23 1017.31 1017.35 1017.43 1017.55 1017.71 1017.83 1017.91 1017.99 1018.03 1018.03 1018.03 1018.03 1018.03 1018.03 1018.07 1018.07 1017.99 1017.95 1018.07 1018.15 1018.23 1018.27 1018.35 1018.47 1018.79 1018.75 1018.71 1018.79 1018.87 1018.99 1019.11 1019.19 1019.23 1019.23
1015.03 1015.07 1015.19 1015.27 1015.35 1015.39 1015.43 1015.55 1015.67 1015.79 1015.91 1015.99 1016.03 1016.11 1016.31 1016.39 1016.55 1016.63 1016.71 1016.79 1016.83 1016.91 1016.99 1017.03 1017.07 1017.15 1017.27 1017.27 1017.35 1017.39 1017.47 1017.59 1017.71 1017.79 1017.87 1017.99 1018.03 1018.07 1018.07 1018.07 1018.07 1018.03 1018.11 1018.15 1018.11 1018.11 1018.11 1018.19 1018.27 1018.27 1018.35 1018.63 1018.95 1018.71 1018.75 1018.87 1018.99 1019.03 1019.11 1019.11 1019.23 1019.19
1015.03 1015.07 1015.19 1015.35 1015.39 1015.47 1015.51 1015.59 1015.79 1015.91 1016.07 1016.19 1016.27 1016.43 1016.51 1016.63 1016.75 1016.87 1016.95 1016.95 1016.99 1017.03 1017.07 1017.15 1017.11 1017.11 1017.23 1017.35 1017.39 1017.43 1017.51 1017.63 1017.75 1017.83 1017.87 1017.99 1018.07 1018.15 1018.15 1018.15 1018.15 1018.15 1018.15 1018.19 1018.27 1018.31 1018.27 1018.23 1018.27 1018.31 1018.39 1018.59 1018.99 1018.75 1018.83 1018.95 1019.07 1019.15 1019.11 1019.11 1019.19 1019.19
1014.87 1014.99 1015.15 1015.27 1015.43 1015.51 1015.51 1015.67 1015.83 1016.03 1016.19 1016.35 1016.51 1016.59 1016.67 1016.79 1016.91 1017.07 1017.11 1017.11 1017.07 1017.11 1017.23 1017.27 1017.31 1017.31 1017.35 1017.43 1017.47 1017.59 1017.67 1017.79 1017.83 1017.95 1017.91 1018.11 1018.15 1018.23 1018.19 1018.27 1018.31 1018.31 1018.35 1018.35 1018.39 1018.39 1018.39 1018.39 1018.31 1018.31 1018.35 1018.39 1018.95 1018.83 1018.87 1018.95 1019.07 1019.11 1019.11 1019.07 1019.15 1019.15
1014.79 1014.95 1015.11 1015.31 1015.47 1015.51 1015.59 1015.87 1016.03 1016.11 1016.27 1016.47 1016.63 1016.75 1016.79 1016.91 1017.07 1017.15 1017.15 1017.11 1017.11 1017.23 1017.31 1017.39 1017.47 1017.47 1017.43 1017.47 1017.63 1017.75 1017.91 1017.95 1017.99 1018.07 1017.99 1018.19 1018.19 1018.23 1018.27 1018.31 1018.43 1018.51 1018.47 1018.47 1018.47 1018.47 1018.51 1018.47 1018.43 1018.39 1018.35 1018.27 1018.87 1018.79 1018.91 1018.99 1019.03 1019.03 1019.07 1019.15 1019.15 1019.15
1014.83 1014.99 1015.19 1015.31 1015.43 1015.47 1015.71 1015.87 1016.03 1016.19 1016.39 1016.67 1016.71 1016.87 1016.99 1017.07 1017.11 1017.07 1016.99 1016.95 1017.07 1017.31 1017.43 1017.51 1017.47 1017.43 1017.43 1017.47 1017.67 1017.83 1017.95 1017.99 1018.07 1018.11 1018.07 1018.19 1018.27 1018.27 1018.31 1018.39 1018.51 1018.59 1018.55 1018.59 1018.55 1018.51 1018.51 1018.47 1018.51 1018.51 1018.43 1018.39 1018.71 1018.71 1018.91 1019.07 1019.07 1019.11 1019.19 1019.19 1019.15 1019.15
1014.63 1014.87 1015.19 1015.27 1015.43 1015.59 1015.75 1015.99 1016.15 1016.27 1016.51 1016.63 1016.83 1017.03 1017.07 1017.07 1017.03 1016.95 1016.87 1016.87 1016.99 1017.27 1017.43 1017.47 1017.39 1017.31 1017.35 1017.47 1017.67 1017.79 1017.87 1017.95 1018.03 1018.03 1018.03 1018.11 1018.31 1018.39 1018.43 1018.43 1018.55 1018.59 1018.67 1018.67 1018.67 1018.51 1018.51 1018.47 1018.43 1018.51 1018.55 1018.51 1018.55 1018.67 1018.83 1018.87 1019.03 1019.11 1019.19 1019.19 1019.19 1019.19
1014.47 1014.83 1015.07 1015.19 1015.51 1015.59 1015.79 1016.07 1016.27 1016.51 1016.67 1016.63 1016.99 1017.11 1017.07 1017.03 1016.95 1016.83 1016.87 1017.03 1017.23 1017.35 1017.31 1017.31 1017.31 1017.35 1017.43 1017.63 1017.71 1017.83 1017.95 1018.03 1018.07 1018.07 1018.03 1018.19 1018.23 1018.39 1018.47 1018.47 1018.51 1018.59 1018.67 1018.71 1018.71 1018.59 1018.47 1018.39 1018.31 1018.43 1018.51 1018.47 1018.55 1018.63 1018.79 1018.91 1018.99 1019.07 1019.19 1019.19 1019.19 1019.19
1014.31 1014.67 1014.99 1015.23 1015.51 1015.71 1015.83 1016.11 1016.39 1016.55 1016.59 1016.63 1017.03 1017.15 1017.15 1016.99 1016.83 1017.03 1017.23 1017.19 1017.11 1017.03 1017.07 1017.15 1017.23 1017.35 1017.51 1017.67 1017.75 1017.87 1018.07 1018.11 1018.11 1018.07 1018.07 1018.23 1018.23 1018.31 1018.43 1018.43 1018.47 1018.55 1018.63 1018.71 1018.71 1018.55 1018.47 1018.43 1018.35 1018.39 1018.43 1018.39 1018.43 1018.63 1018.63 1018.75 1018.91 1018.99 1019.15 1019.19 1019.19 1019.19
1014.35 1014.63 1014.99 1015.35 1015.55 1015.75 1015.91 1016.15 1016.39 1016.51 1016.55 1016.67 1016.95 1017.23 1017.27 1016.95 1016.75 1017.19 1017.27 1017.15 1017.07 1016.91 1017.03 1017.27 1017.31 1017.35 1017.43 1017.59 1017.79 1017.95 1018.11 1018.15 1018.11 1018.03 1017.99 1018.03 1018.07 1018.15 1018.23 1018.31 1018.35 1018.43 1018.55 1018.59 1018.55 1018.39 1018.35 1018.31 1018.43 1018.39 1018.31 1018.27 1018.47 1018.51 1018.67 1018.67 1018.87 1018.99 1019.19 1019.23 1019.23 1019.23
1014.39 1014.67 1015.07 1015.35 1015.55 1015.87 1016.07 1016.23 1016.43 1016.55 1016.67 1016.71 1016.87 1017.23 1017.27 1017.07 1016.79 1017.15 1017.23 1017.19 1017.07 1016.99 1016.87 1017.19 1017.43 1017.43 1017.51 1017.71 1017.83 1017.87 1017.95 1018.07 1018.07 1017.99 1017.95 1017.95 1018.03 1018.03 1018.11 1018.15 1018.11 1018.15 1018.27 1018.39 1018.43 1018.35 1018.27 1018.35 1018.47 1018.55 1018.55 1018.55 1018.47 1018.59 1018.75 1018.87 1018.91 1018.95 1019.11 1019.23 1019.23 1019.23
1014.43 1014.79 1015.11 1015.39 1015.59 1015.83 1016.03 1016.19 1016.39 1016.59 1016.71 1016.83 1016.95 1017.07 1017.15 1017.07 1016.83 1016.91 1017.11 1017.15 1017.11 1017.07 1016.99 1017.15 1017.43 1017.51 1017.59 1017.67 1017.79 1017.79 1017.83 1017.91 1017.91 1017.87 1017.87 1017.91 1017.99 1018.07 1018.11 1018.15 1018.15 1018.07 1018.35 1018.39 1018.43 1018.51 1018.47 1018.51 1018.63 1018.71 1018.71 1018.67 1018.59 1018.67 1018.83 1018.91 1019.07 1019.19 1019.15 1019.11 1019.23 1019.23
1014.51 1014.91 1015.15 1015.39 1015.63 1015.91 1016.07 1016.15 1016.27 1016.51 1016.67 1016.91 1016.99 1017.03 1017.03 1016.95 1016.87 1016.87 1016.91 1017.03 1017.11 1017.19 1017.19 1017.19 1017.39 1017.55 1017.63 1017.71 1017.75 1017.75 1017.79 1017.83 1017.83 1017.83 1017.91 1017.95 1018.03 1018.11 1018.15 1018.11 1018.19 1018.23 1018.35 1018.47 1018.59 1018.67 1018.67 1018.79 1018.87 1018.83 1018.87 1018.87 1018.79 1018.91 1018.95 1019.07 1019.07 1019.07 1019.15 1019.27 1019.23 1019.27
1014.51 1014.87 1015.11 1015.43 1015.59 1015.87 1015.99 1016.15 1016.23 1016.35 1016.67 1016.87 1017.03 1017.07 1017.11 1017.07 1016.99 1016.87 1016.83 1016.91 1017.07 1017.23 1017.15 1017.15 1017.31 1017.59 1017.79 1017.79 1017.75 1017.79 1017.83 1017.75 1017.75 1017.83 1017.91 1017.91 1018.03 1018.11 1018.11 1018.15 1018.19 1018.39 1018.55 1018.67 1018.71 1018.79 1018.83 1018.99 1018.99 1019.07 1019.15 1019.07 1019.07 1018.99 1019.07 1019.27 1019.15 1019.11 1019.07 1019.15 1019.31 1019.39
1014.59 1014.91 1015.11 1015.19 1015.39 1015.67 1015.87 1016.07 1016.27 1016.35 1016.63 1016.91 1017.11 1017.23 1017.27 1017.23 1017.15 1017.03 1016.99 1016.99 1017.03 1017.15 1017.03 1017.07 1017.23 1017.39 1017.55 1017.71 1017.79 1017.91 1017.91 1017.67 1017.67 1017.75 1017.79 1017.91 1018.03 1018.19 1018.15 1018.15 1018.19 1018.31 1018.71 1018.87 1018.87 1019.07 1019.03 1019.15 1019.19 1019.23 1019.19 1019.19 1019.27 1019.23 1019.27 1019.39 1019.43 1019.31 1019.19 1019.15 1019.27 1019.39
1014.63 1014.87 1015.07 1015.15 1015.27 1015.55 1015.83 1016.15 1016.35 1016.55 1016.79 1016.91 1017.07 1017.23 1017.31 1017.35 1017.27 1017.23 1017.19 1017.11 1017.03 1017.15 1017.23 1017.31 1017.31 1017.31 1017.55 1017.67 1017.79 1017.87 1017.83 1017.71 1017.63 1017.71 1017.87 1017.99 1018.15 1018.19 1018.19 1018.27 1018.31 1018.35 1018.43 1018.87 1019.03 1019.23 1019.27 1019.27 1019.31 1019.35 1019.27 1019.31 1019.43 1019.51 1019.63 1019.55 1019.59 1019.75 1019.47 1019.43 1019.43 1019.35
1014.63 1014.79 1014.99 1015.11 1015.19 1015.39 1015.63 1015.91 1016.35 1016.55 1016.67 1016.83 1016.91 1016.95 1017.07 1017.23 1017.39 1017.39 1017.39 1017.35 1017.27 1017.19 1017.27 1017.47 1017.47 1017.43 1017.51 1017.59 1017.71 1017.83 1017.83 1017.75 1017.67 1017.75 1017.95 1018.11 1018.27 1018.23 1018.23 1018.23 1018.51 1018.59 1018.59 1018.75 1019.15 1019.27 1019.43 1019.39 1019.35 1019.39 1019.47 1019.47 1019.59 1019.71 1019.87 1019.75 1019.75 1019.75 1019.91 1019.99 1019.75 1019.63
1014.59 1014.83 1015.03 1015.15 1015.23 1015.39 1015.67 1016.07 1016.35 1016.55 1016.83 1016.95 1016.99 1016.99 1016.95 1017.11 1017.31 1017.43 1017.55 1017.59 1017.63 1017.59 1017.51 1017.59 1017.63 1017.67 1017.71 1017.75 1017.87 1017.95 1017.99 1017.91 1017.83 1017.91 1018.03 1018.19 1018.31 1018.31 1018.31 1018.35 1018.51 1018.79 1018.83 1018.91 1018.99 1019.15 1019.23 1019.35 1019.51 1019.59 1019.63 1019.63 1019.55 1019.55 1019.55 1019.59 1019.59 1019.75 1019.91 1020.03 1020.07 1019.99
1014.63 1014.83 1015.07 1015.23 1015.39 1015.75 1015.99 1016.35 1016.71 1016.79 1016.91 1017.07 1017.15 1017.19 1017.11 1017.11 1017.11 1017.27 1017.47 1017.59 1017.71 1017.83 1017.79 1017.87 1017.83 1017.79 1017.87 1017.95 1017.99 1017.91 1017.99 1017.99 1017.91 1017.99 1018.15 1018.31 1018.39 1018.39 1018.43 1018.55 1018.71 1018.79 1019.03 1019.15 1019.19 1019.27 1019.23 1019.39 1019.67 1019.75 1019.83 1019.79 1019.67 1019.63 1019.59 1019.63 1019.63 1019.75 1019.79 1019.83 1019.87 1019.99
1014.79 1014.91 1015.11 1015.43 1015.63 1015.91 1016.39 1016.79 1016.87 1016.79 1016.95 1017.11 1017.19 1017.27 1017.35 1017.27 1017.15 1017.11 1017.23 1017.43 1017.63 1017.75 1017.91 1017.99 1017.99 1017.99 1017.95 1017.91 1017.95 1017.91 1017.95 1017.99 1017.91 1017.99 1018.15 1018.31 1018.31 1018.35 1018.39 1018.55 1018.79 1018.91 1019.07 1019.31 1019.51 1019.43 1019.47 1019.43 1019.75 1020.15 1020.07 1020.03 1019.95 1019.87 1019.83 1019.75 1019.75 1019.71 1019.67 1019.67 1019.67 1019.75
1014.83 1014.99 1015.19 1015.31 1015.47 1015.71 1016.07 1016.23 1016.47 1016.79 1016.83 1017.03 1017.11 1017.15 1017.31 1017.27 1017.27 1017.23 1017.23 1017.35 1017.55 1017.71 1017.83 1017.95 1018.03 1018.15 1018.07 1018.07 1018.07 1017.95 1017.95 1017.99 1017.99 1018.11 1018.23 1018.31 1018.35 1018.35 1018.43 1018.63 1018.79 1019.11 1019.23 1019.47 1019.71 1019.83 1019.59 1019.59 1020.15 1020.31 1020.63 1020.63 1020.43 1020.27 1020.07 1019.99 1019.91 1019.87 1019.79 1019.71 1019.63 1019.63
1014.87 1015.07 1015.27 1015.39 1015.55 1015.79 1016.07 1016.23 1016.31 1016.75 1016.71 1017.07 1016.99 1016.91 1016.91 1017.03 1016.99 1017.07 1017.15 1017.31 1017.47 1017.67 1017.83 1017.87 1017.99 1018.11 1018.15 1018.15 1018.15 1018.15 1018.11 1018.11 1018.15 1018.23 1018.43 1018.51 1018.55 1018.83 1018.95 1018.83 1018.87 1019.07 1019.51 1019.67 1019.91 1019.91 1019.87 1019.75 1020.15 1020.27 1020.31 1020.51 1020.91 1020.83 1020.55 1020.31 1020.11 1020.03 1019.99 1019.87 1019.75 1019.75
1014.95 1015.15 1015.35 1015.47 1015.55 1015.71 1015.91 1016.15 1016.35 1016.67 1016.87 1016.75 1017.07 1017.03 1016.99 1016.99 1017.03 1017.07 1017.31 1017.39 1017.51 1017.63 1017.75 1017.91 1017.99 1018.11 1018.19 1018.19 1018.23 1018.27 1018.31 1018.35 1018.35 1018.35 1018.47 1018.63 1018.75 1018.87 1019.03 1018.99 1018.99 1019.07 1019.07 1019.75 1020.11 1020.23 1019.99 1019.83 1019.83 1020.07 1020.67 1020.75 1020.91 1020.79 1020.99 1020.91 1020.67 1020.23 1020.11 1019.99 1019.91 1019.91
1014.91 1015.19 1015.31 1015.39 1015.55 1015.71 1015.99 1016.43 1016.71 1016.99 1016.99 1017.15 1017.27 1017.23 1017.23 1017.43 1017.43 1017.51 1017.59 1017.63 1017.75 1017.75 1017.79 1017.99 1018.11 1018.19 1018.27 1018.35 1018.39 1018.43 1018.43 1018.43 1018.43 1018.51 1018.59 1018.79 1018.91 1018.95 1018.95 1019.07 1019.03 1019.15 1019.19 1019.27 1019.87 1020.03 1020.07 1019.91 1019.95 1019.91 1020.07 1020.79 1021.07 1020.99 1020.99 1020.99 1020.99 1020.63 1020.31 1020.19 1020.11 1020.03
1015.03 1015.19 1015.27 1015.39 1015.47 1015.59 1015.91 1016.31 1016.79 1017.19 1017.63 1017.71 1017.91 1017.83 1017.87 1017.87 1017.87 1017.87 1017.95 1017.95 1017.91 1017.87 1017.95 1018.11 1018.23 1018.31 1018.39 1018.43 1018.55 1018.59 1018.63 1018.63 1018.63 1018.71 1018.71 1018.79 1018.87 1018.95 1019.03 1019.07 1019.11 1019.11 1019.23 1019.19 1019.43 1019.83 1020.15 1020.11 1019.99 1019.99 1019.95 1020.03 1020.15 1020.39 1020.75 1020.95 1020.95 1021.11 1020.39 1020.31 1020.23 1020.07
1015.03 1015.27 1015.35 1015.43 1015.43 1015.47 1015.91 1016.15 1016.43 1016.87 1017.23 1017.59 1017.95 1018.11 1017.99 1017.99 1017.91 1017.99 1017.99 1018.07 1018.07 1017.99 1017.95 1018.03 1018.27 1018.39 1018.51 1018.59 1018.71 1018.79 1018.83 1018.87 1018.87 1018.87 1018.87 1018.91 1018.99 1019.03 1019.03 1019.03 1019.07 1019.11 1019.19 1019.27 1019.35 1019.75 1019.95 1020.15 1020.15 1020.07 1020.11 1020.07 1020.07 1020.11 1020.15 1020.47 1020.99 1021.07 1021.07 1020.55 1020.19 1020.15
1015.07 1015.27 1015.31 1015.39 1015.43 1015.27 1015.79 1016.23 1016.63 1017.07 1017.43 1017.75 1017.87 1018.07 1018.27 1018.23 1018.15 1018.11 1018.11 1018.19 1018.15 1018.15 1018.11 1018.11 1018.31 1018.51 1018.63 1018.79 1018.95 1019.03 1019.07 1019.07 1019.11 1019.11 1019.07 1019.15 1019.15 1019.11 1019.11 1019.11 1019.11 1019.19 1019.31 1019.39 1019.47 1019.63 1019.95 1020.11 1020.15 1020.35 1020.39 1020.27 1020.31 1020.35 1020.35 1020.31 1020.39 1020.67 1021.03 1021.23 1020.79 1020.19
1015.03 1015.19 1015.31 1015.31 1015.47 1015.63 1015.71 1016.03 1016.55 1017.11 1017.71 1018.03 1018.07 1018.23 1018.39 1018.39 1018.31 1018.23 1018.27 1018.35 1018.31 1018.35 1018.31 1018.35 1018.43 1018.59 1018.79 1018.95 1019.11 1019.19 1019.19 1019.27 1019.31 1019.31 1019.27 1019.31 1019.31 1019.31 1019.31 1019.31 1019.31 1019.35 1019.47 1019.63 1019.67 1019.83 1019.95 1020.11 1020.15 1020.27 1020.43 1020.55 1020.47 1020.47 1020.55 1020.59 1020.63 1020.67 1020.95 1021.19 1021.19 1021.11
1015.07 1015.19 1015.27 1015.39 1015.55 1015.71 1015.79 1016.07 1016.71 1017.19 1017.59 1018.15 1018.39 1018.59 1018.59 1018.59 1018.51 1018.43 1018.43 1018.47 1018.43 1018.47 1018.47 1018.55 1018.63 1018.67 1018.83 1019.11 1019.19 1019.27 1019.35 1019.43 1019.47 1019.51 1019.47 1019.55 1019.55 1019.51 1019.47 1019.47 1019.51 1019.51 1019.55 1019.67 1019.79 1019.79 1019.95 1020.11 1020.15 1020.23 1020.19 1020.27 1020.47 1020.63 1020.59 1020.63 1020.79 1020.87 1020.95 1020.99 1021.27 1021.19
1014.79 1015.11 1015.39 1015.51 1015.55 1015.79 1015.79 1015.95 1016.59 1017.07 1017.51 1017.99 1018.43 1018.67 1018.79 1018.83 1018.79 1018.71 1018.63 1018.63 1018.59 1018.63 1018.63 1018.71 1018.75 1018.83 1018.95 1019.07 1019.23 1019.35 1019.43 1019.55 1019.59 1019.59 1019.63 1019.63 1019.63 1019.63 1019.67 1019.67 1019.71 1019.63 1019.63 1019.63 1019.83 1019.95 1020.07 1020.19 1020.19 1020.19 1020.19 1020.15 1020.27 1020.43 1020.59 1020.87 1020.91 1020.83 1020.91 1021.07 1021.23 1021.27
1015.23 1015.35 1015.47 1015.71 1015.87 1015.59 1015.71 1016.03 1016.39 1016.95 1017.43 1017.79 1018.19 1018.55 1018.63 1018.75 1018.83 1018.75 1018.71 1018.71 1018.75 1018.79 1018.83 1018.83 1018.83 1018.91 1019.07 1019.15 1019.23 1019.35 1019.43 1019.55 1019.63 1019.63 1019.71 1019.75 1019.75 1019.71 1019.75 1019.75 1019.75 1019.75 1019.87 1019.99 1019.99 1019.95 1020.03 1020.07 1020.11 1020.23 1020.35 1020.39 1020.47 1020.59 1020.67 1020.75 1020.91 1020.99 1020.91 1021.03 1021.15 1021.35
1015.27 1015.31 1015.39 1015.55 1016.03 1015.51 1015.63 1015.95 1016.39 1016.91 1017.31 1017.63 1018.03 1018.27 1018.47 1018.67 1018.79 1018.79 1018.79 1018.79 1018.83 1018.83 1018.91 1018.91 1018.95 1019.03 1019.07 1019.15 1019.19 1019.35 1019.47 1019.55 1019.59 1019.63 1019.67 1019.71 1019.83 1019.83 1019.83 1019.87 1019.95 1019.99 1020.03 1020.03 1020.11 1020.07 1020.15 1020.35 1020.35 1020.31 1020.63 1020.87 1020.87 1020.87 1020.95 1021.03 1020.99 1021.03 1021.23 1021.19 1021.11 1021.23
1014.91 1014.79 1014.59 1014.75 1015.75 1015.75 1015.59 1015.83 1016.23 1016.71 1017.23 1017.55 1017.83 1018.15 1018.39 1018.55 1018.71 1018.75 1018.71 1018.71 1018.67 1018.67 1018.75 1018.79 1018.95 1018.95 1019.03 1019.07 1019.19 1019.31 1019.47 1019.59 1019.63 1019.67 1019.71 1019.79 1019.87 1019.91 1019.95 1019.99 1020.03 1020.11 1020.19 1020.31 1020.31 1020.35 1020.47 1020.55 1020.67 1020.79 1020.79 1020.75 1020.91 1021.03 1021.11 1021.11 1021.15 1021.11 1021.15 1021.11 1021.31 1021.55
1015.31 1015.75 1016.15 1016.71 1016.63 1016.15 1015.91 1015.79 1015.99 1016.63 1017.19 1017.51 1017.67 1017.95 1018.19 1018.39 1018.51 1018.67 1018.75 1018.71 1018.71 1018.63 1018.63 1018.79 1018.79 1018.87 1018.99 1019.03 1019.15 1019.31 1019.43 1019.55 1019.63 1019.71 1019.75 1019.83 1019.91 1019.99 1020.03 1020.07 1020.15 1020.23 1020.31 1020.35 1020.39 1020.39 1020.51 1020.51 1020.59 1020.71 1020.79 1020.87 1020.99 1021.11 1021.15 1021.15 1021.11 1021.23 1021.23 1021.35 1021.47 1021.59
1014.95 1015.55 1016.03 1015.59 1015.51 1015.63 1015.75 1015.47 1015.67 1016.27 1016.95 1017.55 1017.67 1017.71 1018.07 1018.27 1018.39 1018.43 1018.59 1018.63 1018.59 1018.55 1018.51 1018.63 1018.71 1018.87 1018.99 1018.99 1019.11 1019.27 1019.39 1019.51 1019.63 1019.71 1019.79 1019.91 1019.99 1020.03 1020.11 1020.23 1020.31 1020.39 1020.43 1020.43 1020.47 1020.51 1020.59 1020.59 1020.71 1020.79 1020.87 1020.95 1020.99 1021.19 1021.19 1021.19 1021.23 1021.27 1021.31 1021.43 1021.51 1021.63
1014.43 1014.79 1014.87 1014.87 1014.87 1015.15 1015.43 1015.43 1015.59 1015.91 1016.67 1017.23 1017.67 1017.67 1017.79 1018.07 1018.15 1018.31 1018.47 1018.51 1018.43 1018.35 1018.35 1018.47 1018.59 1018.71 1018.87 1018.91 1019.03 1019.15 1019.31 1019.47 1019.59 1019.71 1019.87 1019.95 1020.03 1020.11 1020.15 1020.23 1020.31 1020.43 1020.51 1020.51 1020.47 1020.59 1020.63 1020.71 1020.83 1020.91 1020.99 1020.99 1021.07 1021.15 1021.19 1021.19 1021.23 1021.27 1021.31 1021.39 1021.47 1021.51
Wind_Speed
6 6 6 5 5 6 8 12 10 12 12 12 11 13 11 12 11 10 9 8 7 4 4 3 5 4 9 5 7 8 9 8 8 9 9 8 8 8 8 7 6 5 5 4 3 4 2 3 4 4 2 1 8 3 3 5 5 5 4 4 4 4
5 6 6 5 4 4 5 8 5 6 6 8 10 11 9 7 8 5 10 7 4 4 4 4 4 7 4 5 6 8 8 8 8 8 7 8 8 8 8 7 6 6 4 3 3 1 2 3 4 4 5 3 5 2 4 5 5 5 4 4 4 6
6 5 5 4 4 4 4 4 4 4 5 8 7 8 5 6 4 5 4 5 4 5 3 3 3 4 4 6 5 7 8 8 8 8 8 8 7 7 7 7 7 6 4 3 1 1 2 2 3 4 4 4 3 1 4 5 4 4 5 4 4 9
7 6 6 5 4 4 4 4 5 4 4 4 4 4 4 4 4 4 4 3 4 3 3 3 6 9 7 4 4 7 8 8 7 7 7 6 7 6 7 7 6 6 4 1 1 2 3 4 4 3 3 1 4 0 4 5 5 4 4 4 4 11
6 6 6 6 6 5 5 5 5 5 5 4 4 4 5 4 4 4 3 3 3 3 3 2 2 2 4 3 3 3 3 3 3 3 5 3 2 3 4 2 2 2 1 2 2 3 3 4 3 4 3 2 5 0 4 5 5 5 5 5 5 10
6 6 6 6 6 5 6 5 4 5 5 4 5 4 4 5 5 4 3 3 3 4 3 3 2 2 2 4 3 3 3 2 2 3 3 4 3 3 2 3 2 2 2 2 4 3 2 3 4 4 5 4 5 2 5 5 5 5 5 5 5 11
6 6 6 5 5 5 5 4 4 5 5 5 4 5 4 4 4 4 4 4 5 4 4 3 3 1 2 4 4 3 4 4 4 4 3 4 3 2 3 4 2 3 2 2 4 4 3 3 3 3 4 5 2 2 6 5 4 4 4 5 6 12
7 7 6 6 5 4 4 5 5 6 4 5 5 5 4 4 5 5 4 4 3 4 5 4 4 4 3 3 4 4 4 4 4 4 4 3 3 2 3 3 2 3 3 3 4 4 4 4 4 4 4 4 2 3 5 6 5 5 4 5 5 8
8 7 6 6 6 4 4 5 4 4 4 6 4 4 4 3 5 5 4 3 3 4 4 4 5 4 1 3 4 4 4 3 3 3 4 3 4 4 4 4 4 4 4 4 4 5 4 5 3 3 4 4 3 3 5 6 6 6 5 5 5 7
9 8 6 6 5 5 5 6 5 5 4 5 4 4 2 1 3 3 3 2 2 4 5 5 4 3 3 3 3 3 2 3 4 3 3 4 3 4 4 4 3 3 4 4 4 6 4 4 2 3 4 2 5 5 6 7 6 6 5 5 5 6
7 7 6 6 5 4 4 4 5 5 4 4 5 5 4 3 4 3 4 3 2 3 3 3 1 3 4 4 3 2 2 2 3 4 4 4 3 4 4 5 5 5 5 5 6 5 2 2 1 3 1 1 2 4 5 5 5 5 5 5 5 5
7 7 7 6 6 5 4 3 4 4 3 3 5 5 7 6 5 4 4 4 3 4 4 2 3 2 3 3 2 2 3 3 4 3 4 4 3 3 4 5 5 5 4 3 2 1 1 2 0 2 3 3 3 5 4 3 4 6 5 5 5 5
7 6 7 7 6 5 4 3 4 4 5 5 4 5 6 5 4 2 5 4 3 3 2 1 2 2 1 2 2 2 1 2 3 3 2 3 3 1 2 2 3 3 3 2 2 3 3 4 4 4 3 3 5 5 5 4 3 2 4 6 5 5
7 8 7 5 6 6 4 3 3 5 5 5 4 4 5 3 3 2 3 4 4 3 2 1 2 2 1 1 1 1 2 0 1 3 2 1 2 1 2 2 2 1 3 3 3 3 5 5 4 4 5 3 5 4 5 5 2 5 3 2 3 4
6 7 5 6 7 6 5 5 4 4 6 5 4 4 4 3 3 3 3 3 3 3 3 3 3 3 3 2 2 2 2 3 2 3 4 2 1 0 1 1 1 2 2 3 3 3 4 4 4 5 4 4 5 4 5 5 3 3 3 4 3 3
7 6 5 5 6 8 7 6 5 4 4 3 4 4 4 5 5 4 3 3 3 4 4 3 2 2 2 3 3 3 4 5 4 4 3 2 2 2 2 2 1 5 4 3 4 3 3 4 4 4 3 5 4 5 5 4 5 4 4 2 4 3
8 7 6 4 5 7 8 7 6 5 4 3 3 3 4 4 4 4 2 2 2 3 3 3 3 3 2 2 3 4 4 5 5 4 2 2 2 2 2 3 2 2 5 4 4 3 3 4 4 4 4 4 6 6 5 4 5 4 4 5 3 2
8 8 7 7 6 6 6 7 7 6 5 4 2 2 3 4 4 2 1 2 2 3 1 0 1 2 1 2 4 4 4 4 4 4 4 3 2 1 3 4 4 2 3 6 4 4 4 3 4 4 4 4 3 5 2 3 3 4 5 4 5 4
8 8 7 7 5 6 5 5 5 7 6 5 3 2 1 1 3 3 3 2 2 2 2 2 2 1 2 3 4 5 4 3 3 4 4 4 3 3 3 3 5 4 4 3 5 4 4 4 4 4 4 3 2 2 2 2 3 5 4 3 3 4
7 7 6 6 7 6 6 6 5 4 6 5 4 3 1 0 0 1 2 2 3 1 2 2 3 2 1 1 3 3 3 3 4 5 5 4 4 4 4 5 4 5 5 4 4 3 4 5 4 4 3 2 2 2 4 2 3 2 2 3 3 4
6 6 7 7 6 7 7 5 4 5 6 4 5 4 3 1 1 0 0 1 2 2 2 3 2 2 2 1 0 1 2 2 3 4 4 4 4 4 4 4 3 3 4 4 3 3 2 4 5 2 3 3 3 3 2 2 2 2 1 1 1 2
5 5 6 6 6 5 5 7 7 6 5 4 5 6 4 3 3 3 2 1 0 1 4 4 3 2 1 1 2 1 1 2 3 4 3 3 3 3 4 4 4 3 2 4 2 2 1 2 1 2 2 0 2 3 2 2 3 3 2 2 2 2
6 7 6 4 4 4 3 6 7 5 7 4 1 2 4 3 3 4 4 3 3 3 2 2 2 1 2 1 1 2 2 2 2 3 4 4 3 3 1 3 3 5 3 2 2 1 2 0 3 1 1 3 0 1 2 2 1 1 2 1 2 2
6 5 5 4 3 4 6 6 6 7 3 5 4 3 4 4 4 6 5 4 4 3 4 3 1 1 0 0 1 2 1 2 2 3 4 4 3 5 5 3 3 3 5 4 2 1 2 1 2 4 1 0 1 2 1 1 1 3 2 2 3 3
7 5 4 4 6 7 9 8 7 6 6 7 5 5 5 6 4 3 3 5 4 4 5 4 4 3 1 0 1 1 1 1 2 3 3 3 2 2 2 2 3 3 2 5 3 2 2 2 3 1 4 2 1 0 1 1 1 1 3 2 2 3
5 5 5 6 8 9 9 10 8 8 6 5 6 5 6 6 4 5 4 1 4 4 5 5 4 4 4 3 1 0 1 1 1 3 3 3 3 3 3 2 2 3 2 2 5 3 2 2 2 3 2 1 2 1 3 2 2 0 3 1 2 3
7 6 6 6 8 10 9 8 9 8 7 7 7 1 1 1 4 3 4 4 4 4 5 7 5 4 4 4 4 3 3 3 2 2 1 3 3 3 2 2 2 3 3 3 4 3 5 2 2 2 1 2 2 1 2 2 0 1 2 2 2 2
6 7 7 7 8 10 10 8 8 6 5 6 5 6 3 3 2 3 6 4 4 4 5 6 6 5 5 5 4 4 4 4 5 3 3 3 3 3 4 3 3 3 3 2 3 5 4 2 3 1 2 1 2 3 2 3 2 2 2 0 2 3
8 8 7 8 8 8 10 9 9 8 6 2 4 5 3 2 3 3 5 4 5 4 5 5 5 5 5 5 4 4 4 5 5 4 4 5 3 4 4 4 4 5 4 4 3 3 4 1 2 3 2 1 2 3 2 2 2 2 1 1 1 0
9 8 8 8 9 10 12 10 8 8 9 6 4 3 3 4 4 4 5 4 4 5 6 5 4 4 6 5 5 4 5 5 4 4 4 4 4 5 5 5 4 5 5 6 4 5 4 3 3 2 3 4 2 1 3 3 3 2 2 1 1 1
10 8 6 8 10 10 10 10 10 9 10 10 7 6 5 4 3 4 5 4 4 4 4 5 6 4 5 4 4 4 5 4 3 3 4 5 5 5 4 5 4 5 6 7 6 5 5 4 4 5 4 5 5 4 3 2 1 2 1 1 1 2
5 6 5 2 5 10 10 9 9 10 11 11 10 8 8 8 6 6 5 6 5 6 4 4 4 5 4 4 4 4 4 4 4 4 4 4 4 4 4 4 5 5 5 4 4 5 5 6 5 6 5 5 5 5 5 4 1 2 3 1 2 0
6 7 8 4 6 10 9 9 10 10 9 9 9 8 7 7 6 6 6 6 6 6 6 5 4 5 4 4 5 5 4 4 3 3 4 5 4 4 4 4 5 4 5 5 4 5 6 4 4 6 6 3 5 5 5 2 3 4 3 4 4 1
7 10 11 11 6 6 8 9 9 9 8 8 8 8 7 8 6 6 6 7 7 7 7 7 6 5 5 4 4 4 4 4 3 4 4 4 4 4 4 5 4 5 5 3 5 6 6 4 5 4 3 7 5 6 5 4 4 5 4 4 4 2
6 6 10 8 3 3 5 9 10 8 7 6 8 8 7 7 7 7 6 6 5 6 7 6 7 5 4 5 4 4 4 4 4 4 4 4 4 4 4 4 4 4 4 4 5 5 5 5 6 5 5 5 6 5 4 3 6 4 4 5 3 1
11 15 15 16 14 11 8 9 11 10 8 4 5 7 7 6 6 7 7 7 7 7 7 7 5 5 4 6 5 4 4 4 4 4 4 4 4 5 4 5 4 4 4 3 5 5 4 5 5 5 4 4 6 3 3 3 3 3 3 3 4 3
12 11 15 14 14 11 9 9 11 12 9 7 6 8 9 8 8 7 7 6 7 7 7 7 7 5 7 6 6 6 5 4 4 4 4 4 4 4 4 4 5 4 4 3 5 4 4 5 4 4 4 4 4 4 2 2 2 2 1 2 2 2
Wind_Direction
109 115 115 120 127 137 147 146 143 144 147 146 147 149 145 146 146 145 138 128 118 110 114 120 127 134 139 126 136 143 144 146 148 147 152 157 159 162 164 167 162 162 178 189 198 250 299 321 325 323 303 71 77 49 91 128 125 131 143 151 146 155
118 120 124 121 129 137 143 145 139 147 148 153 153 154 153 154 148 135 137 127 121 123 122 130 143 140 126 140 145 152 152 151 149 151 151 161 166 170 173 172 175 180 194 205 215 287 328 316 322 323 325 21 75 93 109 132 138 143 142 146 157 166
125 125 118 117 131 137 134 136 141 135 146 155 162 146 144 141 110 124 119 124 126 132 137 134 132 131 130 134 154 159 159 156 155 157 160 168 171 179 181 181 186 190 199 211 282 296 305 303 306 313 339 34 65 102 130 134 137 141 148 158 160 165
133 135 132 140 136 138 146 144 133 127 132 131 123 129 119 122 119 110 112 109 120 126 122 147 166 158 152 137 160 167 169 161 160 161 165 165 177 182 192 193 198 200 199 203 220 300 310 317 306 306 304 58 90 300 130 146 144 141 145 157 163 164
144 144 147 152 154 159 157 142 133 133 140 128 124 123 129 122 116 104 100 102 104 107 109 88 54 47 106 140 155 166 162 152 145 152 161 141 159 191 182 213 221 214 202 219 247 252 267 293 299 296 299 284 107 239 129 142 148 149 160 159 167 163
150 153 157 157 158 167 156 144 134 141 137 127 131 134 127 129 116 117 121 128 112 101 92 82 51 38 116 151 171 162 154 153 156 169 154 160 164 176 178 206 199 216 229 227 246 253 246 255 279 297 290 293 97 167 138 149 160 160 156 154 167 163
157 152 154 155 157 164 159 146 137 141 139 139 130 131 129 125 128 130 147 153 139 120 118 118 126 150 188 167 165 155 162 170 178 180 180 170 178 178 185 204 202 220 231 236 257 261 253 250 240 254 266 275 120 179 144 157 161 149 152 158 166 163
160 151 150 153 159 159 156 145 154 150 130 144 127 126 125 135 143 150 170 167 144 126 137 158 178 187 199 153 156 158 165 169 171 193 184 169 174 185 202 215 208 221 225 232 247 256 257 254 242 215 239 252 224 183 161 155 155 149 155 164 164 164
160 156 147 151 158 158 153 139 134 128 148 154 122 130 142 140 157 163 169 150 131 139 148 168 183 200 138 155 157 153 162 175 175 186 175 181 181 191 209 215 215 219 219 229 231 255 253 261 232 194 207 250 159 159 156 148 160 154 166 170 166 170
161 157 148 145 153 162 165 150 142 148 167 155 141 132 111 186 201 138 109 112 160 170 173 178 184 157 157 174 179 161 151 182 187 198 176 192 193 184 206 217 227 237 230 229 234 242 218 205 182 197 209 191 116 162 161 157 159 160 166 173 171 173
155 155 147 153 164 167 165 158 145 152 166 151 152 115 111 247 229 119 95 106 192 213 186 186 192 153 187 180 155 137 146 179 213 211 197 202 182 190 197 207 213 218 226 228 236 242 223 199 208 233 150 73 99 130 162 154 151 152 163 177 173 175
157 153 155 160 165 163 174 165 144 136 138 144 138 130 153 199 224 120 140 160 183 227 231 128 123 146 174 126 125 157 185 177 219 235 206 204 200 204 201 213 218 213 218 217 221 168 124 146 76 8 28 53 64 76 107 139 166 163 166 170 177 180
152 157 161 164 165 157 148 148 129 127 137 144 144 142 151 180 208 162 151 159 164 202 250 212 117 126 126 122 134 174 207 211 213 219 209 189 187 177 224 217 207 179 121 107 76 62 73 70 67 45 58 55 65 57 64 110 134 165 179 171 180 176
154 163 172 155 146 148 153 134 129 134 137 135 148 147 147 152 165 178 173 177 172 185 201 223 140 121 99 139 177 175 201 312 231 213 197 163 197 138 182 185 182 117 135 113 94 88 86 75 61 61 48 39 55 53 68 58 101 159 154 187 178 171
160 166 163 159 151 149 147 141 143 149 133 136 148 151 137 135 165 181 194 203 177 184 203 211 179 136 145 168 211 206 164 191 206 196 183 179 166 71 117 108 123 134 92 99 95 97 95 88 88 69 56 55 54 42 58 58 37 67 140 164 155 170
155 153 152 163 158 152 151 148 154 154 116 120 136 142 145 153 162 173 196 212 190 182 194 200 171 148 178 173 203 207 193 198 200 190 179 150 130 126 102 75 59 141 118 114 111 77 82 90 74 70 45 62 63 49 43 50 42 15 28 107 160 166
140 136 134 135 126 129 141 146 147 120 112 103 109 109 105 121 142 159 199 246 239 208 193 189 174 186 178 192 205 203 207 199 189 173 147 124 116 147 128 94 57 126 138 133 112 109 87 96 90 76 59 52 48 46 30 36 47 33 19 38 40 141
125 126 133 133 127 127 136 131 115 120 122 118 105 100 106 118 121 127 157 251 286 290 276 287 224 204 177 183 199 189 196 195 174 141 117 111 116 128 116 115 97 70 114 123 121 126 121 115 108 91 73 64 69 95 117 59 47 61 63 36 13 15
124 123 119 121 116 106 97 80 93 118 112 104 97 79 65 88 128 146 169 202 262 305 313 321 285 243 216 193 168 171 174 170 138 121 121 109 104 106 108 91 114 90 60 79 130 140 141 125 97 83 71 51 55 50 45 68 78 86 75 78 65 7
122 122 121 117 120 109 106 124 119 95 93 100 108 116 91 34 331 164 167 184 212 216 271 287 274 273 254 147 160 166 171 147 126 126 124 118 114 112 121 107 98 112 105 72 51 66 92 99 80 75 75 38 31 28 39 31 44 68 96 91 101 95
140 134 131 137 137 134 122 117 119 136 131 133 132 127 111 91 104 354 10 178 200 215 216 242 252 283 293 186 112 135 122 112 112 117 121 134 132 112 108 113 96 68 107 95 45 28 41 94 99 43 20 23 8 12 16 36 15 6 16 2 64 98
138 136 142 152 153 138 145 154 151 162 143 138 134 131 127 114 119 102 91 77 0 249 215 208 194 187 226 165 165 135 95 109 108 113 119 121 115 113 116 109 113 69 27 95 37 353 19 70 32 140 139 353 358 348 3 2 4 337 343 354 0 35
151 150 162 160 143 142 119 135 137 153 141 119 72 121 119 112 100 94 77 73 69 64 79 201 197 176 200 216 183 140 164 138 137 135 131 138 133 93 61 134 140 136 103 63 116 10 15 116 166 136 109 88 9 83 331 359 330 349 353 333 5 41
160 152 151 156 121 104 111 116 111 122 99 113 146 122 87 78 66 61 39 25 51 48 60 50 67 136 49 315 246 179 133 119 134 140 144 149 158 157 150 144 134 148 136 117 94 356 348 22 122 124 78 151 200 121 58 329 320 294 348 338 351 335
160 151 154 137 127 121 109 100 95 77 88 79 57 70 84 66 63 76 65 51 40 63 65 52 47 43 55 56 348 10 68 116 127 107 117 127 139 154 135 147 144 132 123 137 128 127 0 31 73 76 145 103 27 27 205 234 52 297 350 359 342 350
135 142 143 144 144 134 132 130 123 119 115 107 108 111 130 146 118 112 116 96 58 69 89 79 54 49 49 73 71 29 43 55 65 91 126 134 129 118 136 148 152 138 117 126 138 111 107 358 63 64 85 141 167 175 167 222 93 87 310 226 274 292
150 150 146 152 152 134 132 135 136 139 140 141 136 162 131 143 132 132 106 88 90 71 81 84 63 57 59 58 62 54 65 65 65 85 80 100 125 152 141 142 124 122 140 131 124 123 152 169 43 21 33 69 79 63 135 119 170 87 17 316 345 306
150 152 156 155 150 140 133 128 120 117 127 136 146 152 166 183 143 117 97 103 92 78 74 81 80 61 62 67 78 73 70 70 73 70 82 72 89 92 87 60 67 91 89 91 119 137 164 155 145 226 16 39 31 33 44 71 105 151 164 116 319 325
151 156 160 151 140 132 129 132 131 130 121 108 127 144 162 160 119 113 107 103 95 91 75 67 72 79 69 76 83 87 76 76 75 72 81 81 75 80 90 90 79 75 83 66 82 107 108 155 120 163 103 16 36 36 41 65 77 76 110 109 291 321
151 160 158 148 139 141 136 132 133 141 140 139 135 141 154 143 133 132 122 118 105 92 89 76 70 78 82 83 94 92 86 87 93 94 88 93 89 82 82 85 92 104 102 89 72 87 106 117 111 129 143 149 110 56 33 22 25 46 49 85 182 283
159 148 146 150 148 150 146 142 144 147 146 146 153 154 147 144 138 127 132 132 120 117 102 106 97 81 88 92 91 101 108 107 104 103 99 91 93 104 101 101 99 89 90 101 100 98 88 76 93 89 83 96 109 122 147 116 81 48 128 112 49 326
116 125 111 124 176 151 144 144 139 144 149 151 158 163 165 165 170 157 152 145 136 118 112 106 102 100 88 95 98 90 94 96 103 104 102 112 109 105 107 100 86 86 89 90 96 89 86 80 78 78 73 81 90 93 78 114 167 143 122 150 128 180
115 122 127 147 211 154 143 141 143 146 149 155 163 166 168 162 172 162 160 149 145 140 136 114 122 114 127 112 113 108 109 115 109 115 116 102 103 99 92 85 87 83 83 80 86 93 88 87 88 91 95 62 80 66 60 39 96 107 72 110 110 80
143 156 163 162 191 152 141 139 140 141 153 160 165 167 168 166 176 172 168 164 160 155 152 153 153 151 163 132 115 126 121 121 124 120 116 117 111 106 102 98 93 87 85 95 84 82 93 90 79 83 91 75 62 73 61 59 78 72 71 68 52 47
89 53 45 36 355 135 152 139 135 133 149 170 168 168 168 172 172 171 180 169 169 159 151 166 161 169 151 134 137 124 122 122 130 128 121 112 105 96 92 87 90 96 89 85 83 86 80 84 77 79 75 97 92 74 87 89 85 87 96 94 124 157
132 142 164 178 186 180 178 146 137 141 149 179 192 164 161 173 183 175 179 177 178 171 166 163 169 146 163 142 141 124 110 118 115 112 119 123 123 118 113 108 102 99 94 98 93 86 93 84 77 81 97 93 81 81 87 93 97 115 113 139 127 133
170 173 177 182 179 172 163 138 148 155 157 176 199 178 173 182 183 180 182 193 181 182 168 166 167 161 158 156 149 143 136 131 108 110 113 126 127 127 127 122 121 114 120 121 114 119 106 88 89 93 82 96 120 122 109 82 59 77 114 92 105 127